Miscellaneous Local Product
Issued by NWS North Platte, NE

Home | Current Version | Previous Version | Text Only | Print | Product List | Glossary On
Versions: 1 2 3 4 5 6 7 8 9 10 11 12 13 14 15 16 17 18 19 20 21 22 23 24 25 26 27 28 29 30 31 32 33 34 35 36 37 38 39 40 41 42 43 44 45 46 47 48 49 50
000
AXUS43 KLBF 220610
MISLBF


WESTERN AND NORTH CENTRAL NEBRASKA HOURLY WEATHER ROUNDUP
NATIONAL WEATHER SERVICE NORTH PLATTE NE
100 AM CDT TUE APR 22 2014

***STATIONS NOT REPORTING VARIABLES SUCH AS SKY/WEATHER OR
PRESSURE ARE PROVIDED BY THE NEBRASKA DEPARTMENT OF
ROADS...RAWS...AND APRS NETWORKS...AND ARE NOT UNDER
NATIONAL WEATHER SERVICE QUALITY CONTROL***

...OBSERVATIONS IN AND NEAR THE EASTERN PANHANDLE OF NEBRASKA...

CITY           SKY/WX    TMP DP  RH WIND       PRES   REMARKS
PINE RIDGE     CLEAR     47  28  47 NE5       30.09F
CHADRON        CLEAR     52  29  41 S12       30.07F
ALLIANCE       CLEAR     38  29  70 SE10      30.11F WCI  31
SIDNEY         CLEAR     45  29  53 S12       30.15F
WHITECLAY        N/A     44  27  50 E13         N/A
CRESCENT LAKE    N/A     47  28  48 SE6         N/A
LISCO            N/A     49  22  34 E10         N/A
BIG SPRINGS      N/A     50  29  44 SE9         N/A
LEWELLEN         N/A     55  25  32 SE12        N/A
$$

...OBSERVATIONS IN SOUTHWEST NEBRASKA AND FAR NORTHEAST COLORADO...

CITY           SKY/WX    TMP DP  RH WIND       PRES   REMARKS
WRAY           FAIR      53  31  42 SE10      30.17S
HOLYOKE        FAIR      45  30  57 S9        30.16S
IMPERIAL       CLEAR     46  28  49 SE12      30.17S
OGALLALA       CLEAR     49  25  38 SE6       30.15F
NORTH PLATTE   PTCLDY    40  28  62 E7        30.17S
MCCOOK         CLEAR     49  31  49 E3        30.17S
LEXINGTON      CLEAR     43  32  65 CALM      30.18S
PAXTON           N/A     47  29  49 CALM        N/A
SUTHERLAND       N/A     48  22  36 S10         N/A
GOTHENBURG       N/A     47  34  61 CALM        N/A
CALLAWAY         N/A     43  30  60 E8          N/A
$$

...OBSERVATIONS IN NORTH CENTRAL NEBRASKA...

CITY           SKY/WX    TMP DP  RH WIND       PRES   REMARKS
VALENTINE      CLEAR     47  28  47 SE6       30.14F
THEDFORD       CLEAR     47  27  45 SE6       30.17S
AINSWORTH      CLEAR     46  31  57 SE8       30.15F
O`NEILL        CLEAR     43  30  60 CALM      30.16S
ORD            CLEAR     38  27  64 SW3       30.16S
BROKEN BOW     CLEAR     38  29  70 CALM      30.17S
BROWNLEE         N/A     50  28  42 E9          N/A
SPRINGVIEW       N/A     38  28  66 CALM        N/A
DUNNING          N/A     41  35  77 CALM        N/A
BREWSTER         N/A     43  28  56 S3          N/A
ROSE             N/A     49  33  54 E7          N/A
NEWPORT          N/A     43  33  67 S6          N/A
COMSTOCK         N/A     50  30  46 SE6         N/A
EWING            N/A     44  30  58 CALM        N/A
$$

...SOME WEATHER OBSERVATIONS FROM AROUND THE REGION...

CITY           SKY/WX    TMP DP  RH WIND       PRES   REMARKS
DENVER         PTCLDY    56  31  38 S22G30    30.12F
LARAMIE        PTCLDY    42  31  64 S12       30.15F
CHEYENNE       PTCLDY    48  31  51 S12G20    30.14F
SCOTTSBLUFF    CLEAR     47  30  51 E10       30.10F
RAPID CITY     CLEAR     46  28  49 S3        30.08F
PIERRE         CLEAR     40  29  64 CALM      30.12S
WINNER         FAIR      47  29  49 SE9       30.14S
SIOUX FALLS    FAIR      38  30  73 N3        30.15S
OMAHA          FAIR      49  34  56 N5        30.15R
GRAND ISLAND   FAIR      49  32  52 E6        30.18S
KANSAS CITY    FAIR      57  33  40 N13       30.07R
WICHITA        FAIR      60  29  30 N9        30.10R
HAYS           FAIR      48  34  57 NE10      30.17R
LIBERAL        FAIR      57  34  41 E7        30.18S
GOODLAND       PTCLDY    45  30  55 S10       30.20S
$$



USA.gov is the U.S. government's official web portal to all federal, state and local government web resources and services.